This is the latest recevied weather packets stored in our database for station/object KD8UTJ. If no packets are shown the sender has not sent any weather packets the latest 1 day(s).
| Time | Temp. | Humidity | Pressure | Rain* | Wind** | Luminosity | Snow |
|---|---|---|---|---|---|---|---|
| 1778035932 | 23.89° C | 74% | 1018.7 hPa | 0 mm | - | 0 W/m² | - |
| 1778035629 | 23.89° C | 74% | 1018.8 hPa | 0 mm | - | 0 W/m² | - |
| 1778035325 | 23.89° C | 75% | 1018.8 hPa | 0 mm | - | 0 W/m² | - |
| 1778034719 | 23.89° C | 75% | 1018.7 hPa | 0 mm | - | 0 W/m² | - |
| 1778034416 | 23.89° C | 75% | 1018.6 hPa | 0 mm | - | 0 W/m² | - |
| 1778033811 | 23.89° C | 75% | 1018.4 hPa | 0 mm | - | 0 W/m² | - |
| 1778033508 | 23.89° C | 74% | 1018.4 hPa | 0 mm | - | 0 W/m² | - |
| 1778033205 | 23.89° C | 71% | 1018.5 hPa | 0 mm | - | 0 W/m² | - |
| 1778032903 | 23.89° C | 70% | 1018.5 hPa | 0 mm | - | 0 W/m² | - |
| 1778032600 | 23.33° C | 69% | 1018.4 hPa | 0 mm | - | 0 W/m² | - |
| 1778032297 | 23.33° C | 70% | 1018.5 hPa | 0 mm | - | 0 W/m² | - |
| 1778031995 | 23.33° C | 70% | 1018.4 hPa | 0 mm | - | 0 W/m² | - |
| 1778031690 | 23.89° C | 70% | 1018.4 hPa | 0 mm | - | 0 W/m² | - |
| 1778031389 | 23.89° C | 70% | 1018.5 hPa | 0 mm | - | 0 W/m² | - |
| 1778031085 | 23.89° C | 70% | 1018.3 hPa | 0 mm | - | 0 W/m² | - |
| 1778030478 | 23.89° C | 69% | 1018.2 hPa | 0 mm | - | 0 W/m² | - |
| 1778029872 | 23.89° C | 67% | 1018 hPa | 0 mm | - | 0 W/m² | - |
| 1778029571 | 23.89° C | 67% | 1018 hPa | 0 mm | - | 0 W/m² | - |
| 1778029268 | 23.89° C | 69% | 1017.8 hPa | 0 mm | - | 0 W/m² | - |
| 1778028965 | 23.89° C | 70% | 1017.7 hPa | 0 mm | - | 0 W/m² | - |
| 1778028661 | 23.89° C | 70% | 1017.5 hPa | 0 mm | - | 0 W/m² | - |
| 1778028358 | 23.89° C | 70% | 1018 hPa | 0 mm | - | 0 W/m² | - |
| 1778028055 | 23.89° C | 70% | 1017.8 hPa | 0 mm | - | 0 W/m² | - |
| 1778027751 | 23.89° C | 70% | 1017.8 hPa | 0 mm | - | 0 W/m² | - |
| 1778027143 | 23.89° C | 70% | 1017.7 hPa | 0 mm | - | 0 W/m² | - |
* Rain latest hour (hover to see other rain measurements)
** Current wind speed in m/s (hover to see current wind gust speed)